Location: Saint-Palais-sur-Mer
(45.6429°N, 1.0859°W)
Time: 14:33:53
(UTC+01:00)

ARIANE 6 FM1 Upper Stage - Pass Details

Date: 25 January 2026
Orbit: 522 x 609 km, 62.0° (Epoch: 13 February)

Event Time Altitude Azimuth Distance (km) Brightness Sun altitude
Rises 18:30:49 0° 197° (SSW) 2,715 6.8 -5.7°
Reaches altitude 10° 18:33:11 10° 188° (S) 1,810 5.7 -6.1°
Maximum altitude 18:36:53 35° 123° (ESE) 888 3.4 -6.7°
Drops below altitude 10° 18:40:32 10° 57° (ENE) 1,785 4.6 -7.3°
Enters shadow 18:40:51 - 55° (NE) 1,902 4.7 -7.3°
